Time,TemperatureF,DewpointF,PressureIn,WindDirection,WindDirectionDegrees,WindSpeedMPH,WindSpeedGustMPH,Humidity,HourlyPrecipIn,Conditions,Clouds,dailyrainin,SoftwareType,DateUTC
2016-02-07 00:04:00,50.0,-99.9,30.31,SW,223,2.0,2.0,-999,-99.99,,,-99.99,,2016-02-07 08:04:00,
2016-02-07 00:13:00,50.0,-99.9,30.31,SW,221,0.0,2.0,-999,-99.99,,,-99.99,,2016-02-07 08:13:00,
2016-02-07 00:24:00,50.0,-99.9,30.31,SSW,195,1.0,2.0,-999,-99.99,,,-99.99,,2016-02-07 08:24:00,
2016-02-07 00:34:00,51.0,-99.9,30.30,WSW,239,1.0,2.0,-999,-99.99,,,-99.99,,2016-02-07 08:34:00,
2016-02-07 00:54:00,51.0,-99.9,30.29,NE,35,3.0,4.0,-999,-99.99,,,-99.99,,2016-02-07 08:54:00,
2016-02-07 01:03:00,50.0,-99.9,30.30,NE,44,2.0,3.0,-999,-99.99,,,-99.99,,2016-02-07 09:03:00,
2016-02-07 01:13:00,50.0,-99.9,30.29,NNW,339,0.0,2.0,-999,-99.99,,,-99.99,,2016-02-07 09:13:00,
2016-02-07 01:34:00,49.0,-99.9,30.29,SW,235,3.0,4.0,-999,-99.99,,,-99.99,,2016-02-07 09:34:00,
2016-02-07 01:54:00,49.0,-99.9,30.29,SW,222,2.0,3.0,-999,-99.99,,,-99.99,,2016-02-07 09:54:00,
2016-02-07 02:04:00,50.0,-99.9,30.29,WSW,241,4.0,4.0,-999,-99.99,,,-99.99,,2016-02-07 10:04:00,
2016-02-07 02:13:00,49.0,-99.9,30.29,SW,217,3.0,4.0,-999,-99.99,,,-99.99,,2016-02-07 10:13:00,
2016-02-07 02:24:00,49.0,-99.9,30.29,SW,228,3.0,4.0,-999,-99.99,,,-99.99,,2016-02-07 10:24:00,
2016-02-07 02:34:00,49.0,-99.9,30.28,SW,227,2.0,3.0,-999,-99.99,,,-99.99,,2016-02-07 10:34:00,
2016-02-07 03:13:00,50.0,-99.9,30.27,WSW,237,3.0,4.0,-999,-99.99,,,-99.99,,2016-02-07 11:13:00,
2016-02-07 03:34:00,49.0,-99.9,30.27,SW,221,2.0,4.0,-999,-99.99,,,-99.99,,2016-02-07 11:34:00,
2016-02-07 03:44:00,48.0,-99.9,30.27,SW,214,3.0,4.0,-999,-99.99,,,-99.99,,2016-02-07 11:44:00,
2016-02-07 03:54:00,49.0,-99.9,30.27,WSW,246,2.0,4.0,-999,-99.99,,,-99.99,,2016-02-07 11:54:00,
2016-02-07 04:04:00,50.0,-99.9,30.27,WSW,240,3.0,4.0,-999,-99.99,,,-99.99,,2016-02-07 12:04:00,
2016-02-07 04:13:00,49.0,-99.9,30.27,SSW,213,3.0,4.0,-999,-99.99,,,-99.99,,2016-02-07 12:13:00,
2016-02-07 04:24:00,49.0,-99.9,30.26,SW,215,3.0,4.0,-999,-99.99,,,-99.99,,2016-02-07 12:24:00,
2016-02-07 04:34:00,49.0,-99.9,30.26,SSW,212,3.0,4.0,-999,-99.99,,,-99.99,,2016-02-07 12:34:00,
2016-02-07 04:44:00,49.0,-99.9,30.26,SSW,213,2.0,3.0,-999,-99.99,,,-99.99,,2016-02-07 12:44:00,
2016-02-07 04:54:00,49.0,-99.9,30.26,WSW,256,1.0,2.0,-999,-99.99,,,-99.99,,2016-02-07 12:54:00,
2016-02-07 05:07:00,49.0,-99.9,30.26,WNW,285,1.0,2.0,-999,-99.99,,,-99.99,,2016-02-07 13:07:00,
2016-02-07 05:13:00,49.0,-99.9,30.26,NNW,330,0.0,1.0,-999,-99.99,,,-99.99,,2016-02-07 13:13:00,
2016-02-07 05:34:00,50.0,-99.9,30.26,NNE,24,2.0,2.0,-999,-99.99,,,-99.99,,2016-02-07 13:34:00,
2016-02-07 05:44:00,49.0,-99.9,30.26,NE,41,3.0,4.0,-999,-99.99,,,-99.99,,2016-02-07 13:44:00,
2016-02-07 05:54:00,49.0,-99.9,30.25,NE,48,2.0,3.0,-999,-99.99,,,-99.99,,2016-02-07 13:54:00,
2016-02-07 06:03:00,49.0,-99.9,30.26,NE,35,4.0,4.0,-999,-99.99,,,-99.99,,2016-02-07 14:03:00,
2016-02-07 06:13:00,49.0,-99.9,30.26,ENE,60,2.0,2.0,-999,-99.99,,,-99.99,,2016-02-07 14:13:00,
2016-02-07 06:23:00,48.0,-99.9,30.26,SSE,160,0.0,1.0,-999,-99.99,,,-99.99,,2016-02-07 14:23:00,
2016-02-07 06:34:00,49.0,-99.9,30.26,NE,39,0.0,2.0,-999,-99.99,,,-99.99,,2016-02-07 14:34:00,
2016-02-07 07:04:00,48.0,-99.9,30.27,ESE,111,1.0,1.0,-999,-99.99,,,-99.99,,2016-02-07 15:04:00,
2016-02-07 07:13:00,47.0,-99.9,30.27,SSW,195,2.0,2.0,-999,-99.99,,,-99.99,,2016-02-07 15:13:00,
2016-02-07 07:23:00,47.0,-99.9,30.27,South,184,3.0,3.0,-999,-99.99,,,-99.99,,2016-02-07 15:23:00,
2016-02-07 07:34:00,47.0,-99.9,30.27,ESE,121,3.0,4.0,-999,-99.99,,,-99.99,,2016-02-07 15:34:00,
2016-02-07 07:54:00,49.0,-99.9,30.28,ESE,121,4.0,6.0,-999,-99.99,,,-99.99,,2016-02-07 15:54:00,
2016-02-07 08:04:00,49.0,-99.9,30.28,SE,127,4.0,6.0,-999,-99.99,,,-99.99,,2016-02-07 16:04:00,
2016-02-07 08:13:00,51.0,-99.9,30.28,SE,125,4.0,6.0,-999,-99.99,,,-99.99,,2016-02-07 16:13:00,
2016-02-07 08:34:00,53.0,-99.9,30.28,SE,135,5.0,6.0,-999,-99.99,,,-99.99,,2016-02-07 16:34:00,
2016-02-07 09:13:00,55.0,-99.9,30.29,ESE,102,5.0,8.0,-999,-99.99,,,-99.99,,2016-02-07 17:13:00,
2016-02-07 09:34:00,55.0,-99.9,30.29,East,91,6.0,9.0,-999,-99.99,,,-99.99,,2016-02-07 17:34:00,
2016-02-07 09:44:00,55.0,-99.9,30.28,East,87,6.0,10.0,-999,-99.99,,,-99.99,,2016-02-07 17:44:00,
2016-02-07 09:54:00,54.0,-99.9,30.29,ENE,66,6.0,9.0,-999,-99.99,,,-99.99,,2016-02-07 17:54:00,
2016-02-07 10:04:00,55.0,-99.9,30.29,ENE,70,6.0,9.0,-999,-99.99,,,-99.99,,2016-02-07 18:04:00,
2016-02-07 10:13:00,55.0,-99.9,30.29,East,89,5.0,8.0,-999,-99.99,,,-99.99,,2016-02-07 18:13:00,
2016-02-07 10:34:00,54.0,-99.9,30.29,ENE,70,6.0,11.0,-999,-99.99,,,-99.99,,2016-02-07 18:34:00,
2016-02-07 10:44:00,56.0,-99.9,30.28,East,82,4.0,6.0,-999,-99.99,,,-99.99,,2016-02-07 18:44:00,
2016-02-07 11:04:00,56.0,-99.9,30.28,ENE,63,7.0,11.0,-999,-99.99,,,-99.99,,2016-02-07 19:04:00,
2016-02-07 11:14:00,56.0,-99.9,30.28,NE,56,7.0,12.0,-999,-99.99,,,-99.99,,2016-02-07 19:14:00,
2016-02-07 11:24:00,55.0,-99.9,30.27,ENE,60,6.0,9.0,-999,-99.99,,,-99.99,,2016-02-07 19:24:00,
2016-02-07 11:34:00,56.0,-99.9,30.27,ENE,57,7.0,10.0,-999,-99.99,,,-99.99,,2016-02-07 19:34:00,
2016-02-07 11:44:00,57.0,-99.9,30.27,ENE,67,7.0,12.0,-999,-99.99,,,-99.99,,2016-02-07 19:44:00,
2016-02-07 11:54:00,57.0,-99.9,30.26,ENE,63,7.0,11.0,-999,-99.99,,,-99.99,,2016-02-07 19:54:00,
2016-02-07 12:04:00,58.0,-99.9,30.26,ENE,58,6.0,10.0,-999,-99.99,,,-99.99,,2016-02-07 20:04:00,
2016-02-07 12:24:00,59.0,-99.9,30.24,ENE,68,6.0,9.0,-999,-99.99,,,-99.99,,2016-02-07 20:24:00,
2016-02-07 12:34:00,59.0,-99.9,30.24,ENE,67,6.0,9.0,-999,-99.99,,,-99.99,,2016-02-07 20:34:00,
2016-02-07 12:44:00,59.0,-99.9,30.23,NE,48,8.0,9.0,-999,-99.99,,,-99.99,,2016-02-07 20:44:00,
2016-02-07 12:54:00,60.0,-99.9,30.23,ENE,62,6.0,9.0,-999,-99.99,,,-99.99,,2016-02-07 20:54:00,
2016-02-07 13:04:00,60.0,-99.9,30.22,NE,54,9.0,10.0,-999,-99.99,,,-99.99,,2016-02-07 21:04:00,
2016-02-07 13:14:00,60.0,-99.9,30.21,NE,55,9.0,11.0,-999,-99.99,,,-99.99,,2016-02-07 21:14:00,
2016-02-07 13:24:00,61.0,-99.9,30.20,ENE,58,7.0,10.0,-999,-99.99,,,-99.99,,2016-02-07 21:24:00,
2016-02-07 13:34:00,62.0,-99.9,30.20,ENE,62,7.0,11.0,-999,-99.99,,,-99.99,,2016-02-07 21:34:00,
2016-02-07 13:54:00,63.0,-99.9,30.19,ENE,62,9.0,14.0,-999,-99.99,,,-99.99,,2016-02-07 21:54:00,
2016-02-07 14:04:00,62.0,-99.9,30.19,NE,55,9.0,12.0,-999,-99.99,,,-99.99,,2016-02-07 22:04:00,
2016-02-07 14:14:00,63.0,-99.9,30.18,ENE,57,9.0,13.0,-999,-99.99,,,-99.99,,2016-02-07 22:14:00,
2016-02-07 14:25:00,63.0,-99.9,30.18,NE,54,8.0,11.0,-999,-99.99,,,-99.99,,2016-02-07 22:25:00,
2016-02-07 14:35:00,64.0,-99.9,30.17,ENE,62,8.0,9.0,-999,-99.99,,,-99.99,,2016-02-07 22:35:00,
2016-02-07 14:44:00,64.0,-99.9,30.17,ENE,61,9.0,11.0,-999,-99.99,,,-99.99,,2016-02-07 22:44:00,
2016-02-07 14:55:00,64.0,-99.9,30.17,ENE,61,6.0,10.0,-999,-99.99,,,-99.99,,2016-02-07 22:55:00,
2016-02-07 15:34:00,64.0,-99.9,30.16,NE,43,5.0,6.0,-999,-99.99,,,-99.99,,2016-02-07 23:34:00,
2016-02-07 15:44:00,63.0,-99.9,30.16,NNE,13,3.0,4.0,-999,-99.99,,,-99.99,,2016-02-07 23:44:00,
2016-02-07 15:54:00,62.0,-99.9,30.16,NNE,30,5.0,7.0,-999,-99.99,,,-99.99,,2016-02-07 23:54:00,
2016-02-07 16:13:00,62.0,-99.9,30.16,NNE,30,2.0,4.0,-999,-99.99,,,-99.99,,2016-02-08 00:13:00,
2016-02-07 16:54:00,63.0,-99.9,30.16,NE,55,5.0,9.0,-999,-99.99,,,-99.99,,2016-02-08 00:54:00,
2016-02-07 17:04:00,64.0,-99.9,30.16,NE,45,5.0,6.0,-999,-99.99,,,-99.99,,2016-02-08 01:04:00,
2016-02-07 17:13:00,63.0,-99.9,30.16,NNE,23,3.0,6.0,-999,-99.99,,,-99.99,,2016-02-08 01:13:00,
2016-02-07 17:34:00,60.0,-99.9,30.17,North,4,4.0,5.0,-999,-99.99,,,-99.99,,2016-02-08 01:34:00,
2016-02-07 17:44:00,62.0,-99.9,30.17,North,356,4.0,4.0,-999,-99.99,,,-99.99,,2016-02-08 01:44:00,
2016-02-07 17:54:00,62.0,-99.9,30.17,NNE,25,4.0,5.0,-999,-99.99,,,-99.99,,2016-02-08 01:54:00,
2016-02-07 18:04:00,62.0,-99.9,30.17,NE,41,4.0,5.0,-999,-99.99,,,-99.99,,2016-02-08 02:04:00,
2016-02-07 18:13:00,63.0,-99.9,30.17,NNE,31,6.0,6.0,-999,-99.99,,,-99.99,,2016-02-08 02:13:00,
2016-02-07 18:24:00,63.0,-99.9,30.17,NNE,30,6.0,7.0,-999,-99.99,,,-99.99,,2016-02-08 02:24:00,
2016-02-07 18:34:00,63.0,-99.9,30.17,NE,37,6.0,7.0,-999,-99.99,,,-99.99,,2016-02-08 02:34:00,